Regional Weather Roundup
Issued by NWS

Home | Current Version | Previous Version | Graphics & Text | Print | Product List | Glossary On
Versions: 1 2 3 4 5 6 7 8 9 10 11 12 13 14 15 16 17 18 19 20 21 22 23 24 25 26 27 28 29 30 31 32 33 34 35 36 37 38 39 40 41 42 43 44 45 46 47 48 49 50
000
ASUS43 KTOP 150008
RWRKS

WEATHER ROUNDUP FOR KANSAS
NATIONAL WEATHER SERVICE GOODLAND KS
700 PM CDT SUN SEP 14 2014

NOTE:  "FAIR" INDICATES FEW OR NO CLOUDS BELOW 12,000 FEET WITH NO
SIGNIFICANT WEATHER AND/OR OBSTRUCTIONS TO VISIBILITY.

KSZ001>006-013>018-027>032-041>047-150100-
NORTHWEST KANSAS

CITY           SKY/WX    TMP DP  RH WIND       PRES   REMARKS
GOODLAND       SUNNY     74  56  53 S14       29.97F
6HR MIN TEMP:  67; 6HR MAX TEMP:  75;

HAYS           MOCLDY    81  63  54 SE9       29.95F
HILL CITY      CLEAR     80  60  50 SE7       29.95F
6HR MIN TEMP:  67; 6HR MAX TEMP:  82; 6HR PCP: TRACE;

RUSSELL        MOCLDY    79  62  56 SE12      29.95F
6HR MIN TEMP:  70; 6HR MAX TEMP:  80;

$$

KSZ061>065-074>080-084>089-150100-
SOUTHWEST KANSAS

CITY           SKY/WX    TMP DP  RH WIND       PRES   REMARKS
DODGE CITY     PTCLDY    84  58  40 S20G25    29.99S
6HR MIN TEMP:  76; 6HR MAX TEMP:  87;

ELKHART          N/A    N/A N/A N/A MISG        N/A
GARDEN CITY    CLEAR     83  58  42 S14       29.97S
6HR MIN TEMP:  75; 6HR MAX TEMP:  87;

GREAT BEND     MOCLDY    84  61  45 S20G28    29.96F
LIBERAL        CLEAR     82  57  42 S23G29    30.02S
PRATT          CLEAR     81  55  41 S18G24    30.02S
$$

KSZ066>073-081>083-090>101-150100-
SOUTHEAST KANSAS

CITY           SKY/WX    TMP DP  RH WIND       PRES   REMARKS
CHANUTE        CLEAR     73  58  59 S13       30.10S
6HR MIN TEMP:  67; 6HR MAX TEMP:  76;

COFFEYVILLE    PTCLDY    74  60  61 S8        30.10F
6HR MIN TEMP:  69; 6HR MAX TEMP:  77;

HUTCHINSON     CLEAR     80  59  48 S20       30.01S
6HR MIN TEMP:  74; 6HR MAX TEMP:  84;

MEDICINE LODGE   N/A     81  59  47 S18G24    30.01R
NEWTON         CLEAR     77  57  50 S18       30.05F
PARSONS        CLEAR     74  60  61 S6        30.11F
6HR MIN TEMP:  67; 6HR MAX TEMP:  77;

WICHITA INTL   PTCLDY    80  59  48 S18       30.03S
6HR MIN TEMP:  71; 6HR MAX TEMP:  84;

WICHITA JABRA  CLEAR     77  60  55 S15G26    30.04S
6HR MIN TEMP:  70; 6HR MAX TEMP:  79;

WICHITA MCCONL CLEAR     78  59  52 S20       30.05S
WINFIELD       CLEAR     76  62  62 S13       30.08S
6HR MIN TEMP:  70; 6HR MAX TEMP:  80;

$$

KSZ007>012-019>026-033>040-048>060-102>105-150100-
NORTHEAST KANSAS

CITY           SKY/WX    TMP DP  RH WIND       PRES   REMARKS
CONCORDIA      CLOUDY    71  61  70 SE7       30.01F
6HR MIN TEMP:  67; 6HR MAX TEMP:  73;

EMPORIA        CLOUDY    71  59  65 SE9       30.08F
6HR MIN TEMP:  67; 6HR MAX TEMP:  74;

LAWRENCE       PTCLDY    70  56  61 SE10      30.09S
6HR MIN TEMP:  68; 6HR MAX TEMP:  74;

MANHATTAN      PTCLDY    72  57  59 SE10      30.04F
6HR MIN TEMP:  72; 6HR MAX TEMP:  75;

OLATHE IND     CLEAR     69  56  62 SE10      30.10F
6HR MIN TEMP:  67; 6HR MAX TEMP:  72;

OLATHE EXE     PTCLDY    68  56  65 SE10      30.09F
6HR MIN TEMP:  66; 6HR MAX TEMP:  70;

SALINA         PTCLDY    76  59  55 SE12      30.00F
6HR MIN TEMP:  72; 6HR MAX TEMP:  79;

TOPEKA BILLARD CLOUDY    72  55  55 S8        30.09R
6HR MIN TEMP:  71; 6HR MAX TEMP:  75;

TOPEKA FORBES  CLOUDY    71  56  58 S6        30.08R
6HR MIN TEMP:  70; 6HR MAX TEMP:  75;

$$



USA.gov is the U.S. government's official web portal to all federal, state and local government web resources and services.